Reflectivity
-14 -20 -20 -20 -20 -20 -9 -20 -20 -19 -20 -20 -20 -16 -20 -20 -20 -20 -20 -20 -20 -20 -20 5 -11 17 1 11 -3 -20 -12 -20 -20 -1 8 10 5 5 -3 16 10 11 13
-20 -20 -20 -20 -20 -20 -18 -20 -20 -20 -3 -20 -20 -20 -20 -14 -16 -17 -20 -20 -20 -15 -15 -10 8 9 4 -18 -20 -20 -20 -20 -20 -20 -9 7 12 7 8 -20 1 -13 -2
-9 -20 -20 -20 -20 -20 -4 -20 -20 -17 -20 -20 -20 -20 -20 -20 -1 -3 -20 -19 -20 14 2 -10 -4 -8 -19 -20 -20 -20 -20 -20 -20 -19 14 8 9 7 -5 5 11 11 12
2 5 -11 -20 -20 -20 -8 8 10 3 -20 -20 -20 -20 -3 -10 -10 3 -19 -20 -20 -20 8 -11 -20 -10 -11 -20 -20 -20 -20 -20 -20 -20 -20 3 7 5 11 9 -7 -20 -20
-16 11 0 -20 -20 -20 -20 18 14 3 3 -3 -20 -20 -20 -19 13 -9 -20 -20 -20 -20 4 1 3 0 -20 -20 -20 -20 -20 -20 -20 -20 -20 -20 -14 -14 -20 -20 -20 -20 -20
-20 9 -14 -7 -2 -20 16 23 39 37 6 3 2 -8 -9 11 4 -1 -20 -20 -20 -20 -20 -6 5 3 -20 -20 -20 -20 -20 -20 -20 -20 -20 -20 -20 -20 -15 -20 -20 -20 -20
-16 6 -20 13 -0 -13 17 18 35 44 39 30 28 5 -20 -20 -7 -20 -16 -20 -20 -18 -13 -3 4 -8 -20 -20 -20 -20 -20 -20 -20 -20 -20 -20 -20 -13 -20 -20 -20 -20 -20
2 -1 1 -15 17 29 42 18 36 35 17 39 35 36 17 -20 -20 16 -20 -20 -20 11 -20 -6 -20 -20 -20 -20 -20 -20 -20 -20 -20 -20 -20 -20 -9 -5 -20 -12 -20 -17 -16
2 13 13 -11 3 29 33 2 32 37 -13 10 14 39 -1 17 -20 19 9 -7 10 -20 -20 -20 -20 -20 -20 -20 -20 -20 -20 -20 -20 -20 -20 -20 3 -20 -19 -10 -5 -6 -15
4 2 -6 7 11 4 -3 -3 -18 4 -7 -2 4 20 32 8 -8 18 25 2 -17 -20 -20 -20 -20 -20 -20 -20 -20 -20 -20 -20 -20 -20 -20 -20 -1 -2 -1 -1 -6 -11 -20
-5 9 -8 -18 14 18 5 2 12 -7 -20 -20 22 33 39 25 7 2 7 -11 -20 -20 -20 -20 -20 -20 -20 -20 -20 -20 -20 -20 -20 -20 -20 -20 2 -20 -20 -20 -20 -20 -20
-1 -7 -12 -15 5 -9 16 14 5 -20 -20 -8 20 33 39 29 9 6 17 -10 -20 -20 -20 -20 -20 -20 -20 -20 -20 -20 -20 -20 -20 -20 -20 -3 -20 -20 -20 -20 -20 -20 -20
5 -13 -1 -20 -13 5 13 26 15 -20 -20 16 22 34 27 37 30 15 12 -10 -20 -20 -20 -20 -20 -20 -20 -20 -20 -20 -20 -20 -20 -20 -20 -20 -20 -20 -20 -20 -20 -20 -20
14 10 2 7 8 -4 -0 -2 6 0 1 9 32 44 36 36 23 9 -2 7 -19 -20 -20 -20 -20 -20 -20 -20 -20 -20 -20 -20 -20 -20 -20 -20 -1 -20 -20 -20 -20 -20 -20
2 12 17 11 8 12 11 8 -7 3 -4 13 37 28 36 19 24 17 11 4 -5 -11 -20 -20 -20 -20 -20 -20 -20 -20 -20 -20 -20 -20 -20 -20 -20 -6 -20 -20 -20 -20 -20
6 -10 6 6 1 -11 3 16 4 -2 27 30 35 32 29 30 29 23 12 10 2 -12 -8 -20 -20 -20 -20 -20 -20 -20 -20 -20 -20 -20 -20 -20 -20 -20 -20 -20 -20 -20 -20
-14 5 -6 13 8 -20 2 -3 -3 10 23 30 34 36 34 25 31 24 9 3 -3 -0 -3 -18 -20 -20 -20 -20 -20 -20 -20 -20 -20 -20 -20 -20 -20 -20 -20 -20 -20 -20 -20
-9 7 4 13 2 -3 1 16 7 -13 28 19 35 30 33 31 6 12 14 1 17 19 14 -4 6 -20 -20 -20 -20 -20 -20 -20 -20 -20 -20 -20 -20 -20 -20 -20 -20 -20 -20
-20 6 9 10 -15 -15 21 6 30 17 -1 2 26 25 -4 -4 19 22 20 20 22 23 18 12 -9 -20 -20 -20 -20 -20 -20 -20 -20 -20 -20 -20 -20 -20 -20 -20 -20 -20 -20
-20 -0 15 3 -20 7 10 9 17 10 28 20 25 28 22 23 25 27 27 25 20 -20 -20 19 -7 -20 -20 -20 -20 -20 -20 -20 -20 -20 -20 -20 -20 -20 -20 -20 -20 -20 -20
-14 3 4 -10 -9 3 5 11 21 21 23 15 17 19 18 18 17 13 -2 6 -13 -20 -4 -5 4 -20 -20 -20 -20 -20 -20 -20 -20 -20 -20 -20 -20 -20 -20 -20 -20 -12 -20
-14 2 8 1 3 3 10 10 11 16 13 13 25 -2 10 11 1 -6 -0 12 1 -20 -15 -17 -18 -20 -20 -17 -20 -20 -15 -20 -20 -20 -20 -20 -20 -20 4 -5 -20 -20 -20
-15 -10 -5 1 -3 4 7 13 10 22 18 4 1 5 -12 2 16 7 -7 -17 7 -1 12 -19 -20 -13 -6 9 13 -15 -11 2 -20 17 -20 -2 22 -10 -17 -11 -20 -20 -20
-20 -20 -20 -0 -0 0 -20 -2 5 2 24 7 -1 -11 16 1 -5 -12 11 21 -19 18 -2 -13 -17 -18 -20 -20 -16 -18 14 6 -12 26 -20 -20 13 -10 -5 4 -20 -20 -20
-20 -20 4 2 3 -3 -1 -20 -4 5 3 13 6 -1 3 -8 14 24 -5 -2 -0 -20 -20 -20 -20 -20 -20 -19 -20 -20 -20 -6 30 -11 15 22 -20 -20 -20 -20 -20 -20 -20
-20 -14 -20 -20 -10 7 -12 -20 -20 -14 -18 4 21 14 6 -18 1 -6 10 -7 9 -7 -9 -20 -20 -20 -20 4 28 29 -20 -20 19 3 -17 -9 20 -14 16 18 -14 -20 -20
Wind_Speed
8 9 9 7 9 7 7 16 19 20 20 19 20 19 20 19 21 22 21 20 19 19 21 21 19 19 20 20 21 19 19 18 19 20 22 23 24 24 23 20 22 23 25
3 9 10 9 9 10 11 16 20 20 20 21 21 20 19 19 18 20 20 20 19 20 22 22 21 21 22 21 19 18 18 17 19 21 22 24 24 24 24 24 22 22 24
8 10 12 9 9 11 11 15 18 21 23 24 22 21 21 21 20 19 21 21 21 21 23 22 21 21 21 20 18 19 17 16 13 16 18 16 18 22 23 22 22 23 23
7 10 12 11 12 11 13 15 19 22 22 23 23 23 22 21 22 19 22 21 21 21 22 23 22 21 20 19 18 18 17 12 7 9 17 15 17 22 21 22 22 23 24
4 9 10 12 13 14 16 12 19 22 22 22 22 23 22 22 22 21 21 21 21 20 23 23 22 21 19 17 17 18 14 8 5 8 14 16 14 17 21 20 22 21 21
2 5 9 10 12 13 16 16 18 21 19 21 21 22 23 22 22 21 22 23 22 21 21 22 21 20 17 18 18 16 11 7 6 17 12 13 16 18 20 21 21 21 21
6 3 11 10 9 10 9 11 25 21 19 18 19 21 23 22 22 21 21 26 22 22 21 22 21 20 19 19 18 15 8 3 14 14 13 14 17 20 20 19 20 20 21
5 7 14 15 16 12 13 15 8 21 24 21 17 18 20 21 22 21 20 23 25 23 22 20 20 20 19 19 17 13 7 6 14 14 13 14 16 19 20 19 19 19 19
7 9 8 12 8 7 7 1 6 12 20 23 24 17 18 18 19 20 17 21 25 22 22 20 19 19 18 18 17 12 7 3 14 12 13 11 17 18 19 18 18 18 18
5 5 5 9 7 10 7 1 1 7 12 14 14 19 17 17 18 21 18 19 24 25 21 21 18 18 18 16 15 10 5 4 13 13 11 12 18 18 18 18 18 17 18
4 4 4 4 8 7 5 4 5 7 15 17 20 25 19 14 15 21 18 18 23 23 20 20 18 18 17 15 14 12 12 8 10 9 10 15 18 18 18 17 16 17 17
8 8 5 5 4 4 1 5 6 6 7 12 15 18 15 16 14 14 19 20 22 23 20 20 19 19 17 12 10 11 5 8 6 9 10 15 17 18 17 17 16 15 15
9 7 8 6 3 4 3 4 2 4 5 8 9 10 17 14 11 12 12 12 14 20 13 15 15 12 14 11 12 7 9 8 6 8 13 13 16 17 16 16 15 15 15
8 10 11 8 8 7 3 4 4 4 6 6 9 14 12 9 11 10 10 14 13 12 16 13 10 10 12 11 9 10 9 8 6 7 12 12 14 16 16 15 14 14 14
8 8 8 8 7 7 7 5 4 2 6 7 12 16 12 11 9 9 11 10 11 12 13 12 10 10 11 11 10 10 9 8 8 7 8 11 11 14 14 15 14 13 13
9 7 6 6 6 5 4 4 4 6 8 10 9 9 12 10 7 8 10 9 8 8 10 10 10 10 9 9 9 10 9 8 7 8 9 10 10 10 11 13 14 13 11
7 5 7 7 7 6 6 3 6 8 10 10 9 11 9 11 11 10 10 8 6 9 11 8 10 9 8 8 9 9 8 8 7 7 9 9 10 9 11 12 13 13 12
9 8 7 6 8 8 7 4 4 7 9 11 9 10 11 11 13 10 9 8 7 7 7 9 9 8 8 8 8 7 7 7 8 8 6 7 8 9 8 12 13 13 13
8 8 9 7 9 9 8 4 7 9 9 7 7 6 10 11 11 10 8 7 10 9 8 7 8 7 7 7 8 7 6 7 8 8 9 8 8 7 8 13 12 12 13
7 8 9 7 10 9 7 6 5 9 8 5 8 9 14 12 12 10 12 11 10 10 9 8 9 6 7 7 7 6 6 6 6 7 8 8 8 9 8 8 12 11 13
8 9 8 9 11 9 8 9 6 9 10 7 7 14 14 14 16 10 9 12 11 9 10 9 8 7 5 5 6 5 5 6 7 6 6 8 9 10 11 9 7 6 7
11 10 10 12 12 11 10 10 4 10 9 7 7 11 10 11 11 8 12 10 11 6 8 6 9 6 4 6 4 5 5 7 9 10 8 9 7 6 7 12 9 11 7
13 14 11 12 12 10 9 9 7 6 7 5 6 7 8 10 11 10 8 9 7 7 7 9 10 11 7 6 7 4 2 4 2 5 10 3 9 7 7 11 13 9 9
15 13 12 13 13 10 11 11 16 9 10 9 8 7 8 9 11 13 9 9 8 9 11 11 10 9 10 8 7 8 4 2 2 4 4 6 7 9 6 7 6 11 10
15 14 13 15 14 14 13 13 12 11 10 7 8 8 9 9 11 10 9 9 11 10 11 11 11 12 10 9 8 6 8 2 6 7 10 7 7 8 9 7 11 11 11
16 16 16 17 16 16 15 14 16 16 11 10 11 11 8 8 6 8 8 8 10 9 11 11 13 13 12 11 9 8 7 5 9 10 11 12 6 3 5 6 9 8 8
Wind_Direction
208 165 152 149 131 128 153 148 147 146 153 150 144 145 142 146 139 135 135 135 134 129 125 120 119 113 107 107 100 98 92 93 95 98 96 96 94 89 84 83 88 80 76
210 193 133 147 141 138 150 155 150 153 154 148 144 146 141 142 138 136 135 132 132 134 126 119 115 107 105 102 102 99 96 96 101 99 99 91 87 84 79 76 74 79 78
227 191 167 140 136 143 153 160 157 159 156 148 148 149 145 142 139 140 129 133 135 132 124 121 114 111 111 111 105 97 91 92 108 126 110 93 87 88 84 85 88 88 85
265 191 178 140 143 146 147 163 163 161 156 150 152 148 146 140 138 138 134 134 131 130 124 122 122 119 115 104 101 97 93 96 116 178 101 97 91 89 93 90 87 86 86
304 206 155 152 151 165 154 174 172 161 155 152 154 147 142 141 136 138 130 126 127 128 129 125 125 120 116 107 103 97 100 105 184 116 103 103 97 96 98 100 95 87 84
50 259 143 157 166 177 162 176 194 162 153 152 153 145 144 143 139 140 134 130 132 131 131 128 125 122 112 106 98 98 106 145 184 100 106 94 99 98 97 95 97 94 90
156 214 162 158 168 179 167 194 201 166 160 151 153 147 145 146 144 142 143 137 135 130 127 128 126 121 114 111 113 114 124 202 115 112 111 107 106 108 104 101 100 102 99
169 176 152 163 164 171 162 152 199 175 156 160 162 152 151 150 148 143 152 138 131 132 126 127 126 125 122 122 121 117 129 146 112 114 120 103 110 112 109 109 105 104 104
155 180 185 177 111 96 68 50 175 149 153 161 156 174 157 153 150 146 144 136 133 128 128 128 129 127 126 125 118 115 145 221 124 126 114 117 120 117 115 114 112 109 107
117 139 153 179 156 173 157 136 68 156 160 168 167 156 171 160 149 136 137 131 125 124 129 130 131 124 122 118 112 107 120 188 127 125 126 114 131 123 119 120 115 115 112
133 123 135 143 167 179 198 178 265 221 194 190 176 170 174 153 153 146 136 132 123 123 128 128 125 121 116 117 120 142 186 123 138 122 116 136 132 127 125 123 121 119 114
166 176 169 170 188 190 244 272 229 230 217 207 185 186 168 145 161 147 134 134 125 125 127 126 126 128 152 142 144 176 148 131 132 120 116 135 136 132 129 127 122 116 113
176 173 176 188 201 206 206 222 262 253 216 219 190 187 159 155 153 158 137 141 135 135 137 139 139 161 144 148 164 153 132 152 136 118 125 136 137 133 134 130 127 123 120
186 179 170 183 183 183 186 217 215 231 204 191 147 107 122 132 152 154 144 151 151 150 148 151 165 140 151 151 154 139 154 137 138 126 137 145 142 141 137 136 132 132 128
207 219 205 196 182 196 197 179 160 151 167 118 150 129 132 135 142 149 135 147 157 147 159 162 150 153 150 156 156 155 152 137 138 137 142 146 148 151 150 145 145 142 139
226 224 225 195 176 185 199 151 129 106 126 113 94 102 119 127 139 162 130 139 150 151 156 151 163 157 153 149 155 148 149 147 158 146 138 153 155 160 162 159 161 161 153
221 188 199 186 177 173 167 119 124 136 115 101 109 121 135 143 166 139 144 131 144 147 158 149 162 160 154 160 156 156 153 157 149 157 151 155 162 175 175 176 177 175 171
222 210 199 176 174 174 167 138 116 144 128 121 132 146 150 159 145 141 136 133 119 136 137 164 168 157 156 168 158 162 165 168 166 168 178 175 173 180 187 189 187 190 188
213 192 190 178 163 155 155 116 118 132 136 120 135 150 142 149 142 154 132 131 150 151 152 165 160 157 164 172 171 171 176 180 182 187 188 196 195 204 187 175 198 198 200
194 206 189 157 159 154 146 123 124 135 127 120 147 164 162 164 150 147 157 155 166 166 154 157 148 170 188 172 173 179 188 198 196 205 205 205 206 212 222 212 196 212 206
196 195 170 158 165 157 161 149 141 142 145 139 163 160 166 166 148 163 148 164 166 161 154 143 146 184 178 175 176 177 197 214 215 217 216 215 216 215 224 224 229 222 201
192 194 172 177 170 179 181 166 139 149 153 145 150 153 152 172 139 131 163 156 173 148 115 149 168 185 182 185 204 194 197 196 217 216 216 215 214 219 214 230 223 225 228
193 194 181 179 178 184 191 160 123 118 140 137 144 150 161 162 159 153 175 170 156 132 179 182 185 195 193 186 212 240 177 252 114 197 219 223 230 219 223 233 224 219 214
188 191 184 182 180 178 183 162 166 158 163 169 168 170 161 175 171 177 175 188 138 198 201 196 195 209 220 196 193 229 261 59 299 235 189 204 209 217 220 234 220 230 218
181 188 190 187 184 176 181 185 178 171 174 170 178 170 178 181 192 177 174 196 189 203 211 205 204 211 217 228 206 179 216 191 237 255 271 209 196 210 219 210 229 224 214
183 177 193 189 185 184 182 181 180 173 167 169 178 190 189 184 196 183 201 197 206 212 214 213 210 209 212 227 223 208 211 198 219 233 247 255 243 170 231 237 235 224 214